FW3093 Islip Terrace NY US current weather conditions

sailwx.info

Wind from 287 at 4 knots gusting 13

Air temperature 6.1° C
Dewpoint -3.0° C

Last reported at 2019-Dec-05 17:00 UTC.
Time now 2019-Dec-05 18:12 UTC

Location: N 40°45' W 073°12'.
View on Google Maps.

See reports from other nearby stations

  
Tides and Currents Weather Stations Pressure Air Temp Water Temp Dewpoint Dewpoint Depression Visibility Wind Speed Wind Dir Waves Ship Positions
date/time (UTC)wind fromknots sea level pressurealtimeterstation pressurevisibilityair tempwater tempwave heightnotes
2019-Dec-05 17:00 287 4 gusting 13 6.1
2019-Dec-05 16:55 290 5 gusting 14 6.7
2019-Dec-05 16:50 286 5 gusting 14 6.7
2019-Dec-05 16:45 319 6 gusting 18 6.7
2019-Dec-05 16:40 323 5 gusting 18 6.7
2019-Dec-05 16:35 013 4 gusting 13 6.7
2019-Dec-05 16:30 355 3 gusting 13 6.7
2019-Dec-05 16:25 311 2 gusting 13 6.7
2019-Dec-05 16:20 273 5 gusting 14 6.1
2019-Dec-05 16:15 340 6 gusting 15 6.1
2019-Dec-05 16:10 289 6 gusting 19 6.1
2019-Dec-05 16:05 332 7 gusting 19 6.1
2019-Dec-05 16:00 301 6 gusting 17 6.1
2019-Dec-05 15:55 344 5 gusting 18 6.1
2019-Dec-05 15:50 304 3 gusting 18 6.1
2019-Dec-05 15:45 342 4 gusting 11 6.7
2019-Dec-05 15:40 348 5 gusting 13 6.1
2019-Dec-05 15:35 303 5 gusting 13 6.1
2019-Dec-05 15:30 349 6 gusting 19 6.1
2019-Dec-05 15:25 341 7 gusting 19 5.6
2019-Dec-05 15:20 355 5 gusting 16 6.1
2019-Dec-05 15:15 005 4 gusting 12 6.1
2019-Dec-05 15:10 005 3 gusting 12 6.1
2019-Dec-05 15:05 294 3 gusting 16 6.1
2019-Dec-05 15:00 284 3 gusting 16 6.1
2019-Dec-05 14:55 336 4 gusting 14 5.6
2019-Dec-05 14:50 291 5 gusting 14 5.6
2019-Dec-05 14:45 344 4 gusting 11 5.6
2019-Dec-05 14:40 257 3 gusting 16 5.6
2019-Dec-05 14:35 301 2 gusting 16 5.6
2019-Dec-05 14:30 355 1 gusting 14 5.6
2019-Dec-05 14:25 324 1 gusting 11 5.6
2019-Dec-05 14:20 279 2 gusting 13 5.0
2019-Dec-05 14:15 290 2 gusting 13 5.0
2019-Dec-05 14:10 333 1 gusting 11 5.0
2019-Dec-05 14:05 334 2 gusting 11 5.0
2019-Dec-05 14:00 313 2 gusting 11 4.4
2019-Dec-05 13:55 4.4
2019-Dec-05 13:50 322 2 gusting 13 4.4
2019-Dec-05 13:45 018 3 gusting 13 4.4
2019-Dec-05 13:40 324 2 gusting 12 4.4
2019-Dec-05 13:35 345 1 gusting 7 4.4
2019-Dec-05 13:30 265 0 gusting 7 4.4
2019-Dec-05 13:25 297 0 gusting 5 4.4
2019-Dec-05 13:20 311 0 gusting 7 3.9
2019-Dec-05 13:15 264 1 gusting 10 3.9
2019-Dec-05 13:10 355 1 gusting 10 3.3
2019-Dec-05 13:05 274 0 gusting 5 3.3
2019-Dec-05 13:00 257 0 gusting 6 2.8
2019-Dec-05 12:55 319 0 gusting 6 2.8
2019-Dec-05 12:50 308 0 gusting 3 2.8
2019-Dec-05 12:45 306 2.8
2019-Dec-05 12:40 326 2.2
2019-Dec-05 12:35 329 2.2
2019-Dec-05 12:30 327 2.2
2019-Dec-05 12:25 309 2.2
2019-Dec-05 12:20 306 2.2
2019-Dec-05 12:15 300 2.2
2019-Dec-05 12:10 294 2.2
2019-Dec-05 12:05 325 2.2
2019-Dec-05 12:00 344 0 gusting 6 2.2
2019-Dec-05 11:55 355 0 gusting 5 2.2
2019-Dec-05 11:50 285 1 gusting 7 2.2
2019-Dec-05 11:45 316 1 gusting 7 2.8
2019-Dec-05 11:40 351 1 gusting 6 2.2
2019-Dec-05 11:35 296 1 gusting 6 2.2
2019-Dec-05 11:30 319 1 gusting 4 2.2
2019-Dec-05 11:25 309 1 gusting 7 2.2
2019-Dec-05 11:20 290 0 gusting 7 2.2
2019-Dec-05 11:15 338 0 gusting 6 2.2
2019-Dec-05 11:10 331 0 gusting 4 2.2
2019-Dec-05 11:05 319 2.2
2019-Dec-05 11:00 307 2.2
2019-Dec-05 10:55 321 2.2
2019-Dec-05 10:50 285 0 gusting 3 2.2
2019-Dec-05 10:45 302 0 gusting 2 1.7
2019-Dec-05 10:40 315 0 gusting 2 1.7
2019-Dec-05 10:35 328 1.7
2019-Dec-05 10:30 294 1.7
2019-Dec-05 10:25 315 1.7
2019-Dec-05 10:20 307 1.7
2019-Dec-05 10:15 304 1.7
2019-Dec-05 10:10 292 1.7
2019-Dec-05 10:05 293 0 gusting 4 1.7
2019-Dec-05 10:00 277 0 gusting 4 1.7
2019-Dec-05 09:55 272 0 gusting 3 1.7
2019-Dec-05 09:50 313 0 gusting 3 1.7
2019-Dec-05 09:45 311 0 gusting 5 1.7
2019-Dec-05 09:40 315 0 gusting 5 1.7
2019-Dec-05 09:35 270 1.7
2019-Dec-05 09:30 288 1.7
2019-Dec-05 09:25 273 0 gusting 3 1.7
2019-Dec-05 09:20 287 1.7
2019-Dec-05 09:15 324 1.7
2019-Dec-05 09:10 304 1.7
2019-Dec-05 09:05 289 1.7
2019-Dec-05 09:00 287 1.7
2019-Dec-05 08:55 321 1.7
2019-Dec-05 08:50 294 1.7
2019-Dec-05 08:45 322 1.7
2019-Dec-05 08:40 311 1.7
2019-Dec-05 08:35 327 1.7
2019-Dec-05 08:30 328 1.7
2019-Dec-05 08:25 332 1.7
2019-Dec-05 08:15 332 1.7
2019-Dec-05 08:10 332 1.7
2019-Dec-05 08:05 332 1.7
2019-Dec-05 08:00 340 1.7
2019-Dec-05 07:55 315 1.7
2019-Dec-05 07:50 315 1.7
2019-Dec-05 07:45 321 1.7
2019-Dec-05 07:35 321 2.2
2019-Dec-05 07:30 321 2.2
2019-Dec-05 07:25 321 2.2
2019-Dec-05 07:20 321 2.2
2019-Dec-05 07:10 316 2.2
2019-Dec-05 07:05 313 2.2
2019-Dec-05 07:00 285 2.2
2019-Dec-05 06:55 300 2.2
2019-Dec-05 06:45 300 2.2
2019-Dec-05 06:40 300 2.8
2019-Dec-05 06:35 300 2.8
2019-Dec-05 06:25 300 2.8
2019-Dec-05 06:20 300 2.8
2019-Dec-05 06:15 300 2.8
2019-Dec-05 06:10 300 2.8
2019-Dec-05 06:05 300 2.8
2019-Dec-05 06:00 300 2.8
2019-Dec-05 05:55 300 2.8
2019-Dec-05 05:45 300 2.8
2019-Dec-05 05:40 300 2.8
2019-Dec-05 05:35 300 2.8
2019-Dec-05 05:30 300 3.3
2019-Dec-05 05:25 300 3.3
2019-Dec-05 05:20 317 3.3
2019-Dec-05 05:15 315 3.3
2019-Dec-05 05:10 284 3.3
2019-Dec-05 05:05 286 3.3
2019-Dec-05 05:00 286 3.3
2019-Dec-05 04:55 305 3.3
2019-Dec-05 04:45 268 3.3
2019-Dec-05 04:40 296 3.3
2019-Dec-05 04:35 318 3.3
2019-Dec-05 04:30 281 3.3
2019-Dec-05 04:25 293 3.3
2019-Dec-05 04:20 300 3.3
2019-Dec-05 04:15 331 3.3
2019-Dec-05 04:10 283 3.3
2019-Dec-05 04:05 283 3.3
2019-Dec-05 04:00 279 3.3
2019-Dec-05 03:55 281 3.3
2019-Dec-05 03:50 257 3.3
2019-Dec-05 03:45 250 3.3
2019-Dec-05 03:40 250 3.3
2019-Dec-05 03:35 267 3.3
2019-Dec-05 03:30 267 3.3
2019-Dec-05 03:25 267 3.3
2019-Dec-05 03:20 267 3.3
2019-Dec-05 03:15 267 3.3
2019-Dec-05 03:10 267 3.3
2019-Dec-05 03:00 285 3.3
2019-Dec-05 02:55 292 3.3
2019-Dec-05 02:50 275 3.3
2019-Dec-05 02:45 252 3.3
2019-Dec-05 02:40 272 3.3
2019-Dec-05 02:34 252 3.3
2019-Dec-05 02:30 283 3.3
2019-Dec-05 02:25 226 3.3
2019-Dec-05 02:20 252 3.3
2019-Dec-05 02:14 250 3.3
2019-Dec-05 02:09 272 3.3
2019-Dec-05 02:04 230 3.3
2019-Dec-05 01:59 229 3.3
2019-Dec-05 01:55 317 3.3
2019-Dec-05 01:49 317 3.3
2019-Dec-05 01:44 317 3.3
2019-Dec-05 01:40 317 3.3
2019-Dec-05 01:34 317 3.3
2019-Dec-05 01:29 317 3.3
2019-Dec-05 01:24 317 3.3
2019-Dec-05 01:19 317 3.3
2019-Dec-05 01:15 317 3.3
2019-Dec-05 01:09 315 3.3
2019-Dec-05 01:04 315 3.3
2019-Dec-05 00:59 315 3.3
2019-Dec-05 00:54 315 3.3
2019-Dec-05 00:49 305 3.3
2019-Dec-05 00:44 305 3.3
2019-Dec-05 00:39 322 2.8
2019-Dec-05 00:34 322 2.8
2019-Dec-05 00:29 324 2.8
2019-Dec-05 00:24 326 2.8
2019-Dec-05 00:19 326 2.8
2019-Dec-05 00:14 326 2.8
2019-Dec-05 00:09 317 2.8
2019-Dec-05 00:04 319 2.8
2019-Dec-04 23:59 319 2.8
2019-Dec-04 23:54 319 2.8
2019-Dec-04 23:49 319 2.8
2019-Dec-04 23:44 319 2.8
2019-Dec-04 23:39 319 3.3
2019-Dec-04 23:34 319 3.3
2019-Dec-04 23:29 319 3.3
2019-Dec-04 23:24 319 3.3
2019-Dec-04 23:19 319 3.3
2019-Dec-04 23:14 319 3.3
2019-Dec-04 23:09 319 3.3
2019-Dec-04 23:04 319 3.9
2019-Dec-04 22:59 319 3.9
2019-Dec-04 22:54 319 3.9
2019-Dec-04 22:49 306 3.9
2019-Dec-04 22:44 306 3.9
2019-Dec-04 22:39 306 3.9
2019-Dec-04 22:34 267 3.9
2019-Dec-04 22:29 267 3.9
2019-Dec-04 22:24 284 3.9
2019-Dec-04 22:19 325 3.9
2019-Dec-04 22:14 277 3.9
2019-Dec-04 22:09 306 3.9
2019-Dec-04 22:04 293 3.9
2019-Dec-04 21:59 292 3.9
2019-Dec-04 21:54 302 3.9
2019-Dec-04 21:49 311 3.9
2019-Dec-04 21:44 327 3.9
2019-Dec-04 21:39 298 3.9
2019-Dec-04 21:34 291 3.9
2019-Dec-04 21:29 277 3.9
2019-Dec-04 21:24 271 3.9
2019-Dec-04 21:19 271 3.9
2019-Dec-04 21:14 271 3.9
2019-Dec-04 21:09 308 3.9
2019-Dec-04 21:04 284 3.9
2019-Dec-04 20:59 280 3.9
2019-Dec-04 20:54 355 3.9
2019-Dec-04 20:49 355 3.9
2019-Dec-04 20:44 284 3.9
2019-Dec-04 20:39 284 3.9
2019-Dec-04 20:34 301 3.9
2019-Dec-04 20:29 301 3.9
2019-Dec-04 20:24 310 3.9
2019-Dec-04 20:19 316 3.9
2019-Dec-04 20:14 313 3.9
2019-Dec-04 20:09 326 3.9
2019-Dec-04 20:04 326 3.9
2019-Dec-04 19:59 350 3.9
2019-Dec-04 19:54 325 3.9
2019-Dec-04 19:49 290 3.9
2019-Dec-04 19:44 285 3.9
2019-Dec-04 19:39 302 3.9
2019-Dec-04 19:34 258 3.9
2019-Dec-04 19:29 302 3.9
2019-Dec-04 19:24 263 3.9
2019-Dec-04 19:19 276 3.9
2019-Dec-04 19:14 300 3.9
2019-Dec-04 19:09 300 3.9
2019-Dec-04 19:04 321 3.9
2019-Dec-04 18:59 286 3.9
2019-Dec-04 18:54 301 3.9
2019-Dec-04 18:49 320 0 gusting 5 3.9
2019-Dec-04 18:44 009 0 gusting 5 3.9
2019-Dec-04 18:39 307 0 gusting 4 3.9
2019-Dec-04 18:34 350 0 gusting 4 4.4
2019-Dec-04 18:29 275 4.4
2019-Dec-04 18:24 306 0 gusting 6 4.4
2019-Dec-04 18:19 278 0 gusting 6 4.4
2019-Dec-04 18:14 302 4.4
2019-Dec-04 18:09 278 4.4
2019-Dec-04 18:04 309 4.4
2019-Dec-04 17:59 301 4.4
2019-Dec-04 17:54 284 4.4
2019-Dec-04 17:49 271 4.4
2019-Dec-04 17:44 317 4.4
2019-Dec-04 17:39 210 4.4
2019-Dec-04 17:34 263 4.4
2019-Dec-04 17:29 268 4.4
2019-Dec-04 17:24 282 4.4
2019-Dec-04 17:19 311 4.4
2019-Dec-04 17:14 315 4.4
2019-Dec-04 17:09 264 4.4
2019-Dec-04 17:04 294 4.4
2019-Dec-04 16:59 276 4.4
2019-Dec-04 16:54 274 4.4
2019-Dec-04 16:49 302 4.4
2019-Dec-04 16:44 302 4.4
2019-Dec-04 16:39 262 4.4
2019-Dec-04 16:34 320 0 gusting 5 4.4
2019-Dec-04 16:29 305 4.4
2019-Dec-04 16:24 228 4.4
2019-Dec-04 16:19 213 4.4
2019-Dec-04 16:14 229 4.4
2019-Dec-04 16:09 323 4.4
2019-Dec-04 16:04 265 4.4
2019-Dec-04 15:59 284 3.9
2019-Dec-04 15:54 282 3.9
2019-Dec-04 15:49 294 3.9
2019-Dec-04 15:44 295 3.9
2019-Dec-04 15:39 263 3.9
2019-Dec-04 15:34 280 3.9
2019-Dec-04 15:29 273 3.9
2019-Dec-04 15:24 327 3.9
2019-Dec-04 15:19 277 3.3
2019-Dec-04 15:14 236 3.3
2019-Dec-04 15:09 271 3.3
2019-Dec-04 15:04 316 3.3
2019-Dec-04 14:59 284 3.3
2019-Dec-04 14:54 260 3.3
2019-Dec-04 14:49 246 3.3
2019-Dec-04 14:44 263 3.3
2019-Dec-04 14:39 275 3.3
2019-Dec-04 14:34 260 2.8
2019-Dec-04 14:29 322 2.8
2019-Dec-04 14:24 329 2.8
2019-Dec-04 14:19 294 2.8
2019-Dec-04 14:14 309 2.8
2019-Dec-04 14:09 301 2.8
2019-Dec-04 14:04 278 2.2
2019-Dec-04 13:59 337 2.2
2019-Dec-04 13:54 311 2.2
2019-Dec-04 13:49 315 2.2
2019-Dec-04 13:44 284 2.2
2019-Dec-04 13:39 284 2.2
2019-Dec-04 13:34 276 1.7
2019-Dec-04 13:29 275 1.7
2019-Dec-04 13:24 244 1.7
2019-Dec-04 13:19 232 1.7
2019-Dec-04 13:14 238 1.7
2019-Dec-04 13:09 238 1.7
2019-Dec-04 13:04 238 1.7
2019-Dec-04 12:59 248 1.1
2019-Dec-04 12:54 248 1.1
2019-Dec-04 12:49 248 1.1
2019-Dec-04 12:44 248 1.1
2019-Dec-04 12:39 248 1.1
2019-Dec-04 12:34 248 1.1
2019-Dec-04 12:29 248 1.1
2019-Dec-04 12:24 248 0.6
2019-Dec-04 12:19 248 0.6
2019-Dec-04 12:14 248 0.6
2019-Dec-04 12:09 248 0.6
2019-Dec-04 12:04 248 0.6
2019-Dec-04 11:59 248 0.6
2019-Dec-04 11:54 248 0.6
2019-Dec-04 11:48 248 0.6
2019-Dec-04 11:43 248 0.6
2019-Dec-04 11:38 248 0.6
2019-Dec-04 11:33 248 0.6
2019-Dec-04 11:28 248 0.6
2019-Dec-04 11:24 248 0.6
2019-Dec-04 11:19 248 0.6
2019-Dec-04 11:13 279 0.6
2019-Dec-04 11:08 303 -0.0
2019-Dec-04 11:03 303 -0.0
2019-Dec-04 10:59 303 -0.0
2019-Dec-04 10:54 304 -0.0
2019-Dec-04 10:48 304 -0.0
2019-Dec-04 10:43 304 -0.0
2019-Dec-04 10:38 304 -0.0
2019-Dec-04 10:33 304 -0.6
2019-Dec-04 10:28 304 -0.6
2019-Dec-04 10:24 304 -0.6
2019-Dec-04 10:18 304 -0.6
2019-Dec-04 10:13 304 -0.6
2019-Dec-04 10:08 305 -0.6
2019-Dec-04 10:03 322 -0.6
2019-Dec-04 09:58 322 -0.6
2019-Dec-04 09:53 322 -0.6
2019-Dec-04 09:48 322 -0.6
2019-Dec-04 09:43 322 -0.6
2019-Dec-04 09:38 322 -0.6
2019-Dec-04 09:34 322 -0.6
2019-Dec-04 09:28 322 -0.6
2019-Dec-04 09:23 322 -0.6
2019-Dec-04 09:18 322 -0.6
2019-Dec-04 09:13 322 -0.6
2019-Dec-04 09:08 322 -0.6
2019-Dec-04 09:03 322 -0.6
2019-Dec-04 08:58 322 -0.6
2019-Dec-04 08:53 322 -0.6
2019-Dec-04 08:48 322 -0.6
2019-Dec-04 08:43 322 -0.6
2019-Dec-04 08:38 322 -1.1
2019-Dec-04 08:33 322 -1.1
2019-Dec-04 08:28 322 -1.1
2019-Dec-04 08:23 322 -1.1
2019-Dec-04 08:18 322 -1.7
2019-Dec-04 08:13 322 -1.7
2019-Dec-04 08:08 322 -1.7
2019-Dec-04 08:03 322 -1.7
2019-Dec-04 07:58 322 -1.7
2019-Dec-04 07:53 322 -1.7
2019-Dec-04 07:48 322 -1.7
2019-Dec-04 07:43 322 -1.7
2019-Dec-04 07:38 322 -1.7
2019-Dec-04 07:33 322 -1.7
2019-Dec-04 07:28 322 -1.7
2019-Dec-04 07:23 322 -1.7
2019-Dec-04 07:18 322 -1.7
2019-Dec-04 07:13 322 -1.7
2019-Dec-04 07:08 322 -1.7
2019-Dec-04 07:03 322 -1.1
2019-Dec-04 06:59 322 -1.1
2019-Dec-04 06:53 322 -1.1
2019-Dec-04 06:48 322 -1.1
2019-Dec-04 06:43 322 -1.1
2019-Dec-04 06:38 322 -1.1
2019-Dec-04 06:33 322 -0.6
2019-Dec-04 06:28 322 -0.6
2019-Dec-04 06:23 322 -0.6
2019-Dec-04 06:18 322 -0.6
2019-Dec-04 06:13 322 -0.6
2019-Dec-04 06:08 322 -0.6
2019-Dec-04 06:03 322 -0.6
2019-Dec-04 05:58 322 -0.6
2019-Dec-04 05:53 322 -0.6
2019-Dec-04 05:48 322 -0.6
2019-Dec-04 05:43 322 -0.6
2019-Dec-04 05:38 313 -0.6
2019-Dec-04 05:33 309 -0.6
2019-Dec-04 05:28 312 -0.6
2019-Dec-04 05:23 313 -0.6
2019-Dec-04 05:18 314 -0.6
2019-Dec-04 05:13 314 -0.6
2019-Dec-04 05:08 314 -0.6
2019-Dec-04 05:03 314 -0.6
2019-Dec-04 04:58 314 -0.6
2019-Dec-04 04:53 314 -0.6
2019-Dec-04 04:48 314 -0.6
2019-Dec-04 04:43 314 -0.6
2019-Dec-04 04:38 314 -0.6
2019-Dec-04 04:33 314 -0.6
2019-Dec-04 04:28 314 -0.6
2019-Dec-04 04:23 314 -0.6
2019-Dec-04 04:18 304 -0.6
2019-Dec-04 04:13 323 -0.0
2019-Dec-04 04:08 323 0 gusting 5 -0.0
2019-Dec-04 04:03 320 -0.0
2019-Dec-04 03:58 334 -0.0
2019-Dec-04 03:53 355 -0.0
2019-Dec-04 03:48 322 -0.0
2019-Dec-04 03:43 327 -0.0
2019-Dec-04 03:38 287 -0.0
2019-Dec-04 03:33 324 0 gusting 6 -0.0
2019-Dec-04 03:28 351 1 gusting 8 -0.0
2019-Dec-04 03:23 320 1 gusting 8 -0.0
2019-Dec-04 03:18 355 2 gusting 8 -0.0
2019-Dec-04 03:13 292 2 gusting 8 -0.0
2019-Dec-04 03:08 308 1 gusting 7 -0.0
2019-Dec-04 03:03 351 1 gusting 7 -0.0
2019-Dec-04 02:58 321 0 gusting 7 -0.0
2019-Dec-04 02:53 330 0 gusting 6 -0.0
2019-Dec-04 02:48 300 0 gusting 6 -0.0
2019-Dec-04 02:43 306 -0.0
2019-Dec-04 02:38 216 0 gusting 6 -0.0
2019-Dec-04 02:33 309 0 gusting 6 -0.0
2019-Dec-04 02:28 287 -0.0
2019-Dec-04 02:23 343 -0.0
2019-Dec-04 02:18 324 -0.0
2019-Dec-04 02:13 338 -0.0
2019-Dec-04 02:08 318 -0.0
2019-Dec-04 02:03 309 0.6
2019-Dec-04 01:58 318 0.6
2019-Dec-04 01:53 280 0.6
2019-Dec-04 01:48 325 0 gusting 11 0.6
2019-Dec-04 01:43 320 1 gusting 11 0.6
2019-Dec-04 01:38 325 1 gusting 9 0.6
2019-Dec-04 01:33 346 1 gusting 6 0.6
2019-Dec-04 01:28 317 1 gusting 9 0.6
2019-Dec-04 01:23 317 1 gusting 9 0.6
2019-Dec-04 01:18 329 2 gusting 7 0.6
2019-Dec-04 01:13 294 2 gusting 9 0.6
2019-Dec-04 01:08 317 1 gusting 9 0.6
2019-Dec-04 01:03 310 0 gusting 6 0.6
2019-Dec-04 00:58 302 1 gusting 9 0.6
2019-Dec-04 00:53 0.6
2019-Dec-04 00:48 287 1 gusting 9 0.6
2019-Dec-04 00:43 327 1 gusting 9 0.6
2019-Dec-04 00:38 309 1 gusting 12 0.6
2019-Dec-04 00:33 288 2 gusting 12 0.6
2019-Dec-04 00:28 282 3 gusting 9 1.1
2019-Dec-04 00:23 344 3 gusting 9 1.1
2019-Dec-04 00:18 319 3 gusting 11 1.1
2019-Dec-04 00:13 309 4 gusting 11 1.1
2019-Dec-04 00:08 275 4 gusting 12 1.1
2019-Dec-04 00:03 292 3 gusting 12 1.1
2019-Dec-03 23:58 351 3 gusting 9 1.1
2019-Dec-03 23:53 348 2 gusting 9 1.1
2019-Dec-03 23:48 277 3 gusting 8 1.1
2019-Dec-03 23:43 355 3 gusting 8 1.1
2019-Dec-03 23:38 005 4 gusting 12 1.1
2019-Dec-03 23:33 321 4 gusting 12 1.1
2019-Dec-03 23:28 016 2 gusting 9 1.1
2019-Dec-03 23:23 311 1 gusting 9 1.1
2019-Dec-03 23:18 329 1 gusting 9 1.1
2019-Dec-03 23:13 267 0 gusting 6 1.7
2019-Dec-03 23:08 331 0 gusting 7 1.7
2019-Dec-03 23:03 329 1 gusting 8 1.7
2019-Dec-03 22:58 284 1 gusting 8 1.7
2019-Dec-03 22:53 005 0 gusting 7 1.7
2019-Dec-03 22:48 313 1 gusting 7 1.7
2019-Dec-03 22:43 282 1 gusting 7 1.7
2019-Dec-03 22:38 311 0 gusting 7 1.7
2019-Dec-03 22:33 319 1.7
2019-Dec-03 22:28 350 0 gusting 6 1.7
2019-Dec-03 22:23 336 1 gusting 8 2.2
2019-Dec-03 22:18 340 2 gusting 8 2.2
2019-Dec-03 22:13 307 1 gusting 9 2.2
2019-Dec-03 22:08 013 0 gusting 9 2.2
2019-Dec-03 22:03 348 2.2
2019-Dec-03 21:58 278 2.2
2019-Dec-03 21:53 284 2.2
2019-Dec-03 21:48 300 0 gusting 9 2.2
2019-Dec-03 21:43 319 1 gusting 9 2.2
2019-Dec-03 21:38 279 2 gusting 13 2.8
2019-Dec-03 21:33 297 2 gusting 13 2.8
2019-Dec-03 21:28 340 3 gusting 13 2.8
2019-Dec-03 21:23 005 2 gusting 13 2.8
2019-Dec-03 21:18 281 2 gusting 12 2.8
2019-Dec-03 21:13 337 4 gusting 13 2.8
2019-Dec-03 21:08 347 4 gusting 13 2.8
2019-Dec-03 21:03 311 3 gusting 10 2.8
2019-Dec-03 20:58 355 2 gusting 10 2.8
2019-Dec-03 20:53 321 2 gusting 10 2.8
2019-Dec-03 20:48 325 3 gusting 11 2.8
2019-Dec-03 20:43 029 2 gusting 11 2.8
2019-Dec-03 20:38 347 1 gusting 11 2.8
2019-Dec-03 20:33 293 3 gusting 15 3.3
2019-Dec-03 20:28 005 3 gusting 15 3.3
2019-Dec-03 20:23 355 3 gusting 12 3.3
2019-Dec-03 20:18 355 5 gusting 13 3.3
2019-Dec-03 20:13 288 5 gusting 13 3.3
2019-Dec-03 20:08 328 4 gusting 13 3.3
2019-Dec-03 20:03 327 3 gusting 12 3.3
2019-Dec-03 19:58 329 5 gusting 13 3.3
2019-Dec-03 19:53 321 5 gusting 19 3.3
2019-Dec-03 19:48 355 5 gusting 19 3.3
2019-Dec-03 19:43 309 4 gusting 12 3.3
2019-Dec-03 19:38 339 5 gusting 16 3.3
2019-Dec-03 19:33 345 5 gusting 16 3.3
2019-Dec-03 19:28 323 3 gusting 13 3.3
2019-Dec-03 19:23 288 4 gusting 13 3.3
2019-Dec-03 19:18 3.3
2019-Dec-03 19:13 344 3 gusting 13 3.3
2019-Dec-03 19:08 284 4 gusting 13 3.3
2019-Dec-03 19:03 355 6 gusting 18 3.3
2019-Dec-03 18:58 299 6 gusting 18 3.3
2019-Dec-03 18:53 010 6 gusting 17 3.3
2019-Dec-03 18:48 329 6 gusting 17 3.3
2019-Dec-03 18:43 299 4 gusting 17 3.3
2019-Dec-03 18:38 277 4 gusting 13 3.3
2019-Dec-03 18:33 348 5 gusting 17 2.8
2019-Dec-03 18:28 326 5 gusting 17 2.8
2019-Dec-03 18:23 277 5 gusting 13 2.8
2019-Dec-03 18:18 320 4 gusting 13 2.8
2019-Dec-03 18:13 283 3 gusting 13 2.8
2019-Dec-03 18:08 324 4 gusting 13 2.8
2019-Dec-03 18:03 324 4 gusting 15 2.8